owner,sensor,date,latitude,longitude,vertical_datum,wind_speed,wind_to_direction,wind_speed_of_gust,qcFlag 
TCOON,ioos:station:TCOON:057:1,2009-09-01T00:00:00Z,28.4460,-96.3961,0.0,3.5,113.0,4.2,'11111222,11111222,11111222' 
TCOON,ioos:station:TCOON:057:1,2009-09-01T01:00:00Z,28.4460,-96.3961,0.0,4.6,106.0,5.4,'11111222,11111222,11111222' 
TCOON,ioos:station:TCOON:057:1,2009-09-01T03:00:00Z,28.4460,-96.3961,0.0,6.0,98.0,6.9,'11111222,11111222,11111222' 
TCOON,ioos:station:TCOON:057:1,2009-09-01T04:00:00Z,28.4460,-96.3961,0.0,4.8,92.0,5.8,'11111222,11111222,11111222' 
TCOON,ioos:station:TCOON:057:1,2009-09-01T05:00:00Z,28.4460,-96.3961,0.0,4.6,77.0,5.3,'11111222,11111222,11111222' 
TCOON,ioos:station:TCOON:057:1,2009-09-01T06:00:00Z,28.4460,-96.3961,0.0,5.3,94.0,6.2,'11111222,11111222,11111222' 
TCOON,ioos:station:TCOON:057:1,2009-09-01T07:00:00Z,28.4460,-96.3961,0.0,5.3,101.0,6.1,'11111222,11111222,11111222' 
TCOON,ioos:station:TCOON:057:1,2009-09-01T08:00:00Z,28.4460,-96.3961,0.0,4.7,108.0,5.1,'11111222,11111222,11111222' 
TCOON,ioos:station:TCOON:057:1,2009-09-01T09:00:00Z,28.4460,-96.3961,0.0,3.7,106.0,4.7,'11111222,11111222,11111222' 
TCOON,ioos:station:TCOON:057:1,2009-09-01T10:00:00Z,28.4460,-96.3961,0.0,3.3,80.0,3.8,'11111222,11111222,11111222' 
TCOON,ioos:station:TCOON:057:1,2009-09-01T11:00:00Z,28.4460,-96.3961,0.0,5.0,44.0,5.5,'11111222,11111222,11111222' 
TCOON,ioos:station:TCOON:057:1,2009-09-01T12:00:00Z,28.4460,-96.3961,0.0,5.4,49.0,6.2,'11111222,11111222,11111222' 
TCOON,ioos:station:TCOON:057:1,2009-09-01T13:00:00Z,28.4460,-96.3961,0.0,5.6,58.0,6.3,'11111222,11111222,11111222' 
TCOON,ioos:station:TCOON:057:1,2009-09-01T14:00:00Z,28.4460,-96.3961,0.0,6.9,46.0,7.6,'11111222,11111222,11111222' 
TCOON,ioos:station:TCOON:057:1,2009-09-01T15:00:00Z,28.4460,-96.3961,0.0,7.1,58.0,8.2,'11111222,11111222,11111222' 
TCOON,ioos:station:TCOON:057:1,2009-09-01T16:00:00Z,28.4460,-96.3961,0.0,6.1,55.0,6.6,'11111222,11111222,11111222' 
TCOON,ioos:station:TCOON:057:1,2009-09-01T17:00:00Z,28.4460,-96.3961,0.0,5.8,57.0,6.7,'11111222,11111222,11111222' 
TCOON,ioos:station:TCOON:057:1,2009-09-01T18:00:00Z,28.4460,-96.3961,0.0,6.1,54.0,7.3,'11111222,11111222,11111222' 
TCOON,ioos:station:TCOON:057:1,2009-09-01T19:00:00Z,28.4460,-96.3961,0.0,6.3,84.0,7.4,'11111222,11111222,11111222' 
TCOON,ioos:station:TCOON:057:1,2009-09-01T20:00:00Z,28.4460,-96.3961,0.0,4.3,83.0,4.6,'11111222,11111222,11111222' 
TCOON,ioos:station:TCOON:057:1,2009-09-01T21:00:00Z,28.4460,-96.3961,0.0,5.0,96.0,5.5,'11111222,11111222,11111222' 
TCOON,ioos:station:TCOON:057:1,2009-09-01T22:00:00Z,28.4460,-96.3961,0.0,4.9,97.0,6.1,'11111222,11111222,11111222' 
TCOON,ioos:station:TCOON:057:1,2009-09-01T23:00:00Z,28.4460,-96.3961,0.0,6.2,92.0,6.8,'11111222,11111222,11111222' 
TCOON,ioos:station:TCOON:057:1,2009-09-02T00:00:00Z,28.4460,-96.3961,0.0,5.1,104.0,6.0,'11111222,11111222,11111222' 
TCOON,ioos:station:TCOON:057:1,2009-09-02T01:00:00Z,28.4460,-96.3961,0.0,5.3,111.0,6.0,'11111222,11111222,11111222' 
TCOON,ioos:station:TCOON:057:1,2009-09-02T02:00:00Z,28.4460,-96.3961,0.0,4.4,90.0,5.0,'11111222,11111222,11111222' 
TCOON,ioos:station:TCOON:057:1,2009-09-02T03:00:00Z,28.4460,-96.3961,0.0,4.0,96.0,4.4,'11111222,11111222,11111222' 
TCOON,ioos:station:TCOON:057:1,2009-09-02T04:00:00Z,28.4460,-96.3961,0.0,3.1,97.0,3.6,'11111222,11111222,11111222' 
TCOON,ioos:station:TCOON:057:1,2009-09-02T05:00:00Z,28.4460,-96.3961,0.0,3.5,106.0,3.9,'11111222,11111222,11111222' 
TCOON,ioos:station:TCOON:057:1,2009-09-02T06:00:00Z,28.4460,-96.3961,0.0,3.8,91.0,4.5,'11111222,11111222,11111222' 
TCOON,ioos:station:TCOON:057:1,2009-09-02T07:00:00Z,28.4460,-96.3961,0.0,3.8,86.0,4.2,'11111222,11111222,11111222' 
TCOON,ioos:station:TCOON:057:1,2009-09-02T08:00:00Z,28.4460,-96.3961,0.0,4.2,80.0,4.7,'11111222,11111222,11111222' 
TCOON,ioos:station:TCOON:057:1,2009-09-02T09:00:00Z,28.4460,-96.3961,0.0,4.8,67.0,6.0,'11111222,11111222,11111222' 
TCOON,ioos:station:TCOON:057:1,2009-09-02T10:00:00Z,28.4460,-96.3961,0.0,4.6,73.0,5.2,'11111222,11111222,11111222' 
TCOON,ioos:station:TCOON:057:1,2009-09-02T11:00:00Z,28.4460,-96.3961,0.0,4.4,49.0,5.3,'11111222,11111222,11111222' 
TCOON,ioos:station:TCOON:057:1,2009-09-02T12:00:00Z,28.4460,-96.3961,0.0,4.7,52.0,5.3,'11111222,11111222,11111222' 
TCOON,ioos:station:TCOON:057:1,2009-09-02T13:00:00Z,28.4460,-96.3961,0.0,4.1,49.0,4.5,'11111222,11111222,11111222' 
TCOON,ioos:station:TCOON:057:1,2009-09-02T14:00:00Z,28.4460,-96.3961,0.0,3.4,40.0,3.7,'11111222,11111222,11111222' 
TCOON,ioos:station:TCOON:057:1,2009-09-02T15:00:00Z,28.4460,-96.3961,0.0,4.2,40.0,4.9,'11111222,11111222,11111222' 
TCOON,ioos:station:TCOON:057:1,2009-09-02T16:00:00Z,28.4460,-96.3961,0.0,3.1,34.0,3.6,'11111222,11111222,11111222' 
TCOON,ioos:station:TCOON:057:1,2009-09-02T17:00:00Z,28.4460,-96.3961,0.0,3.0,44.0,3.6,'11111222,11111222,11111222' 
TCOON,ioos:station:TCOON:057:1,2009-09-02T18:00:00Z,28.4460,-96.3961,0.0,2.3,61.0,2.8,'11111222,11111222,11111222' 
TCOON,ioos:station:TCOON:057:1,2009-09-02T19:00:00Z,28.4460,-96.3961,0.0,3.1,124.0,3.7,'11111222,11111222,11111222' 
TCOON,ioos:station:TCOON:057:1,2009-09-02T20:00:00Z,28.4460,-96.3961,0.0,4.3,147.0,4.9,'11111222,11111222,11111222' 
TCOON,ioos:station:TCOON:057:1,2009-09-02T21:00:00Z,28.4460,-96.3961,0.0,5.3,148.0,6.5,'11111222,11111222,11111222' 
TCOON,ioos:station:TCOON:057:1,2009-09-02T22:00:00Z,28.4460,-96.3961,0.0,5.7,159.0,6.4,'11111222,11111222,11111222' 
TCOON,ioos:station:TCOON:057:1,2009-09-02T23:00:00Z,28.4460,-96.3961,0.0,6.3,162.0,7.2,'11111222,11111222,11111222' 
TCOON,ioos:station:TCOON:057:1,2009-09-03T00:00:00Z,28.4460,-96.3961,0.0,6.0,142.0,6.7,'11111222,11111222,11111222' 
TCOON,ioos:station:TCOON:057:1,2009-09-03T01:00:00Z,28.4460,-96.3961,0.0,6.2,135.0,7.0,'11111222,11111222,11111222' 
TCOON,ioos:station:TCOON:057:1,2009-09-03T02:00:00Z,28.4460,-96.3961,0.0,6.3,137.0,7.2,'11111222,11111222,11111222' 
TCOON,ioos:station:TCOON:057:1,2009-09-03T03:00:00Z,28.4460,-96.3961,0.0,6.1,149.0,7.0,'11111222,11111222,11111222' 
TCOON,ioos:station:TCOON:057:1,2009-09-03T04:00:00Z,28.4460,-96.3961,0.0,5.9,164.0,6.7,'11111222,11111222,11111222' 
TCOON,ioos:station:TCOON:057:1,2009-09-03T05:00:00Z,28.4460,-96.3961,0.0,5.4,165.0,6.0,'11111222,11111222,11111222' 
TCOON,ioos:station:TCOON:057:1,2009-09-03T06:00:00Z,28.4460,-96.3961,0.0,4.9,162.0,5.8,'11111222,11111222,11111222' 
TCOON,ioos:station:TCOON:057:1,2009-09-03T07:00:00Z,28.4460,-96.3961,0.0,4.4,177.0,4.8,'11111222,11111222,11111222' 
TCOON,ioos:station:TCOON:057:1,2009-09-03T08:00:00Z,28.4460,-96.3961,0.0,2.7,207.0,3.3,'11111222,11111222,11111222' 
TCOON,ioos:station:TCOON:057:1,2009-09-03T09:00:00Z,28.4460,-96.3961,0.0,1.9,212.0,2.2,'11111222,11111222,11111222' 
TCOON,ioos:station:TCOON:057:1,2009-09-03T10:00:00Z,28.4460,-96.3961,0.0,1.5,200.0,1.7,'11111222,11111222,11111222' 
TCOON,ioos:station:TCOON:057:1,2009-09-03T11:00:00Z,28.4460,-96.3961,0.0,1.5,239.0,1.7,'11111222,11111222,11111222' 
TCOON,ioos:station:TCOON:057:1,2009-09-03T12:00:00Z,28.4460,-96.3961,0.0,1.6,268.0,1.8,'11111222,11111222,11111222' 
TCOON,ioos:station:TCOON:057:1,2009-09-03T13:00:00Z,28.4460,-96.3961,0.0,1.7,290.0,2.0,'11111222,11111222,11111222' 
TCOON,ioos:station:TCOON:057:1,2009-09-03T14:00:00Z,28.4460,-96.3961,0.0,2.2,298.0,2.6,'11111222,11111222,11111222' 
TCOON,ioos:station:TCOON:057:1,2009-09-03T15:00:00Z,28.4460,-96.3961,0.0,3.3,358.0,3.7,'11111222,11111222,11111222' 
TCOON,ioos:station:TCOON:057:1,2009-09-03T16:00:00Z,28.4460,-96.3961,0.0,2.4,28.0,2.8,'11111222,11111222,11111222' 
TCOON,ioos:station:TCOON:057:1,2009-09-03T17:00:00Z,28.4460,-96.3961,0.0,1.7,103.0,2.1,'11111222,11111222,11111222' 
TCOON,ioos:station:TCOON:057:1,2009-09-03T18:00:00Z,28.4460,-96.3961,0.0,4.6,139.0,5.4,'11111222,11111222,11111222' 
TCOON,ioos:station:TCOON:057:1,2009-09-03T19:00:00Z,28.4460,-96.3961,0.0,5.1,152.0,5.9,'11111222,11111222,11111222' 
TCOON,ioos:station:TCOON:057:1,2009-09-03T20:00:00Z,28.4460,-96.3961,0.0,4.9,155.0,5.5,'11111222,11111222,11111222' 
TCOON,ioos:station:TCOON:057:1,2009-09-03T21:00:00Z,28.4460,-96.3961,0.0,5.5,165.0,7.0,'11111222,11111222,11111222' 
TCOON,ioos:station:TCOON:057:1,2009-09-03T22:00:00Z,28.4460,-96.3961,0.0,6.5,162.0,7.6,'11111222,11111222,11111222' 
TCOON,ioos:station:TCOON:057:1,2009-09-03T23:00:00Z,28.4460,-96.3961,0.0,6.6,155.0,8.3,'11111222,11111222,11111222' 
TCOON,ioos:station:TCOON:057:1,2009-09-04T00:00:00Z,28.4460,-96.3961,0.0,7.5,138.0,8.9,'11111222,11111222,11111222' 
TCOON,ioos:station:TCOON:057:1,2009-09-04T01:00:00Z,28.4460,-96.3961,0.0,6.0,129.0,6.9,'11111222,11111222,11111222' 
TCOON,ioos:station:TCOON:057:1,2009-09-04T02:00:00Z,28.4460,-96.3961,0.0,6.4,138.0,7.2,'11111222,11111222,11111222' 
TCOON,ioos:station:TCOON:057:1,2009-09-04T03:00:00Z,28.4460,-96.3961,0.0,5.9,129.0,7.0,'11111222,11111222,11111222' 
TCOON,ioos:station:TCOON:057:1,2009-09-04T04:00:00Z,28.4460,-96.3961,0.0,5.3,163.0,6.0,'11111222,11111222,11111222' 
TCOON,ioos:station:TCOON:057:1,2009-09-04T05:00:00Z,28.4460,-96.3961,0.0,6.0,162.0,6.8,'11111222,11111222,11111222' 
TCOON,ioos:station:TCOON:057:1,2009-09-04T06:00:00Z,28.4460,-96.3961,0.0,2.5,207.0,3.0,'11111222,11111222,11111222' 
TCOON,ioos:station:TCOON:057:1,2009-09-04T07:00:00Z,28.4460,-96.3961,0.0,2.6,183.0,3.3,'11111222,11111222,11111222' 
TCOON,ioos:station:TCOON:057:1,2009-09-04T08:00:00Z,28.4460,-96.3961,0.0,1.7,210.0,2.2,'11111222,11111222,11111222' 
TCOON,ioos:station:TCOON:057:1,2009-09-04T09:00:00Z,28.4460,-96.3961,0.0,1.8,170.0,2.3,'11111222,11111222,11111222' 
TCOON,ioos:station:TCOON:057:1,2009-09-04T10:00:00Z,28.4460,-96.3961,0.0,2.9,149.0,3.3,'11111222,11111222,11111222' 
TCOON,ioos:station:TCOON:057:1,2009-09-04T11:00:00Z,28.4460,-96.3961,0.0,2.9,146.0,3.4,'11111222,11111222,11111222' 
TCOON,ioos:station:TCOON:057:1,2009-09-04T12:00:00Z,28.4460,-96.3961,0.0,2.3,170.0,2.7,'11111222,11111222,11111222' 
TCOON,ioos:station:TCOON:057:1,2009-09-04T13:00:00Z,28.4460,-96.3961,0.0,0.0,211.0,0.2,'11111222,11111222,11111222' 
TCOON,ioos:station:TCOON:057:1,2009-09-04T14:00:00Z,28.4460,-96.3961,0.0,1.5,274.0,1.8,'11111222,11111222,11111222' 
TCOON,ioos:station:TCOON:057:1,2009-09-04T15:00:00Z,28.4460,-96.3961,0.0,2.9,299.0,3.5,'11111222,11111222,11111222' 
TCOON,ioos:station:TCOON:057:1,2009-09-04T16:00:00Z,28.4460,-96.3961,0.0,1.0,102.0,1.4,'11111222,11111222,11111222' 
TCOON,ioos:station:TCOON:057:1,2009-09-04T17:00:00Z,28.4460,-96.3961,0.0,2.8,70.0,3.5,'11111222,11111222,11111222' 
TCOON,ioos:station:TCOON:057:1,2009-09-04T18:00:00Z,28.4460,-96.3961,0.0,3.0,68.0,3.7,'11111222,11111222,11111222' 
TCOON,ioos:station:TCOON:057:1,2009-09-04T19:00:00Z,28.4460,-96.3961,0.0,4.3,105.0,5.0,'11111222,11111222,11111222' 
TCOON,ioos:station:TCOON:057:1,2009-09-04T20:00:00Z,28.4460,-96.3961,0.0,6.3,111.0,7.4,'11111222,11111222,11111222' 
TCOON,ioos:station:TCOON:057:1,2009-09-04T21:00:00Z,28.4460,-96.3961,0.0,6.9,123.0,8.3,'11111222,11111222,11111222' 
TCOON,ioos:station:TCOON:057:1,2009-09-04T22:00:00Z,28.4460,-96.3961,0.0,6.4,120.0,7.2,'11111222,11111222,11111222' 
TCOON,ioos:station:TCOON:057:1,2009-09-04T23:00:00Z,28.4460,-96.3961,0.0,6.5,114.0,7.5,'11111222,11111222,11111222' 
TCOON,ioos:station:TCOON:057:1,2009-09-05T00:00:00Z,28.4460,-96.3961,0.0,4.5,129.0,4.9,'11111222,11111222,11111222' 
TCOON,ioos:station:TCOON:057:1,2009-09-05T01:00:00Z,28.4460,-96.3961,0.0,4.7,128.0,5.3,'11111222,11111222,11111222' 
TCOON,ioos:station:TCOON:057:1,2009-09-05T02:00:00Z,28.4460,-96.3961,0.0,4.5,117.0,5.4,'11111222,11111222,11111222' 
TCOON,ioos:station:TCOON:057:1,2009-09-05T03:00:00Z,28.4460,-96.3961,0.0,4.4,114.0,5.0,'11111222,11111222,11111222' 
TCOON,ioos:station:TCOON:057:1,2009-09-05T04:00:00Z,28.4460,-96.3961,0.0,2.7,122.0,3.1,'11111222,11111222,11111222' 
TCOON,ioos:station:TCOON:057:1,2009-09-05T05:00:00Z,28.4460,-96.3961,0.0,2.8,139.0,3.2,'11111222,11111222,11111222' 
TCOON,ioos:station:TCOON:057:1,2009-09-05T06:00:00Z,28.4460,-96.3961,0.0,2.8,143.0,3.4,'11111222,11111222,11111222' 
TCOON,ioos:station:TCOON:057:1,2009-09-05T07:00:00Z,28.4460,-96.3961,0.0,2.5,117.0,2.9,'11111222,11111222,11111222' 
TCOON,ioos:station:TCOON:057:1,2009-09-05T08:00:00Z,28.4460,-96.3961,0.0,1.6,128.0,1.8,'11111222,11111222,11111222' 
TCOON,ioos:station:TCOON:057:1,2009-09-05T09:00:00Z,28.4460,-96.3961,0.0,1.1,91.0,1.3,'11111222,11111222,11111222' 
TCOON,ioos:station:TCOON:057:1,2009-09-05T10:00:00Z,28.4460,-96.3961,0.0,1.0,12.0,1.1,'11111222,11111222,11111222' 
TCOON,ioos:station:TCOON:057:1,2009-09-05T11:00:00Z,28.4460,-96.3961,0.0,3.3,41.0,3.9,'11111222,11111222,11111222' 
TCOON,ioos:station:TCOON:057:1,2009-09-05T12:00:00Z,28.4460,-96.3961,0.0,3.9,291.0,4.6,'11111222,11111222,11111222' 
TCOON,ioos:station:TCOON:057:1,2009-09-05T13:00:00Z,28.4460,-96.3961,0.0,3.7,4.0,4.2,'11111222,11111222,11111222' 
TCOON,ioos:station:TCOON:057:1,2009-09-05T14:00:00Z,28.4460,-96.3961,0.0,4.9,28.0,5.8,'11111222,11111222,11111222' 
TCOON,ioos:station:TCOON:057:1,2009-09-05T15:00:00Z,28.4460,-96.3961,0.0,5.8,25.0,6.8,'11111222,11111222,11111222' 
TCOON,ioos:station:TCOON:057:1,2009-09-05T16:00:00Z,28.4460,-96.3961,0.0,5.7,31.0,6.2,'11111222,11111222,11111222' 
TCOON,ioos:station:TCOON:057:1,2009-09-05T17:00:00Z,28.4460,-96.3961,0.0,3.4,54.0,3.9,'11111222,11111222,11111222' 
TCOON,ioos:station:TCOON:057:1,2009-09-05T18:00:00Z,28.4460,-96.3961,0.0,2.4,38.0,2.9,'11111222,11111222,11111222' 
TCOON,ioos:station:TCOON:057:1,2009-09-05T19:00:00Z,28.4460,-96.3961,0.0,1.4,89.0,2.0,'11111222,11111222,11111222' 
TCOON,ioos:station:TCOON:057:1,2009-09-05T20:00:00Z,28.4460,-96.3961,0.0,5.4,99.0,6.7,'11111222,11111222,11111222' 
TCOON,ioos:station:TCOON:057:1,2009-09-05T21:00:00Z,28.4460,-96.3961,0.0,6.2,90.0,7.0,'11111222,11111222,11111222' 
TCOON,ioos:station:TCOON:057:1,2009-09-05T22:00:00Z,28.4460,-96.3961,0.0,5.7,57.0,6.4,'11111222,11111222,11111222' 
TCOON,ioos:station:TCOON:057:1,2009-09-05T23:00:00Z,28.4460,-96.3961,0.0,5.0,47.0,5.5,'11111222,11111222,11111222' 
TCOON,ioos:station:TCOON:057:1,2009-09-06T00:00:00Z,28.4460,-96.3961,0.0,5.5,94.0,6.3,'11111222,11111222,11111222' 
TCOON,ioos:station:TCOON:057:1,2009-09-06T01:00:00Z,28.4460,-96.3961,0.0,5.2,90.0,5.9,'11111222,11111222,11111222' 
TCOON,ioos:station:TCOON:057:1,2009-09-06T02:00:00Z,28.4460,-96.3961,0.0,5.5,89.0,6.3,'11111222,11111222,11111222' 
TCOON,ioos:station:TCOON:057:1,2009-09-06T03:00:00Z,28.4460,-96.3961,0.0,5.2,92.0,5.8,'11111222,11111222,11111222' 
TCOON,ioos:station:TCOON:057:1,2009-09-06T04:00:00Z,28.4460,-96.3961,0.0,4.2,72.0,4.5,'11111222,11111222,11111222' 
TCOON,ioos:station:TCOON:057:1,2009-09-06T05:00:00Z,28.4460,-96.3961,0.0,5.8,25.0,6.3,'11111222,11111222,11111222' 
TCOON,ioos:station:TCOON:057:1,2009-09-06T06:00:00Z,28.4460,-96.3961,0.0,2.7,65.0,3.3,'11111222,11111222,11111222' 
TCOON,ioos:station:TCOON:057:1,2009-09-06T07:00:00Z,28.4460,-96.3961,0.0,3.6,23.0,4.6,'11111222,11111222,11111222' 
TCOON,ioos:station:TCOON:057:1,2009-09-06T08:00:00Z,28.4460,-96.3961,0.0,4.1,3.0,4.8,'11111222,11111222,11111222' 
TCOON,ioos:station:TCOON:057:1,2009-09-06T09:00:00Z,28.4460,-96.3961,0.0,4.4,35.0,4.8,'11111222,11111222,11111222' 
TCOON,ioos:station:TCOON:057:1,2009-09-06T10:00:00Z,28.4460,-96.3961,0.0,5.3,16.0,5.7,'11111222,11111222,11111222' 
TCOON,ioos:station:TCOON:057:1,2009-09-06T11:00:00Z,28.4460,-96.3961,0.0,5.5,27.0,6.0,'11111222,11111222,11111222' 
TCOON,ioos:station:TCOON:057:1,2009-09-06T12:00:00Z,28.4460,-96.3961,0.0,5.6,29.0,6.4,'11111222,11111222,11111222' 
TCOON,ioos:station:TCOON:057:1,2009-09-06T13:00:00Z,28.4460,-96.3961,0.0,6.5,41.0,7.2,'11111222,11111222,11111222' 
TCOON,ioos:station:TCOON:057:1,2009-09-06T14:00:00Z,28.4460,-96.3961,0.0,6.2,54.0,6.7,'11111222,11111222,11111222' 
TCOON,ioos:station:TCOON:057:1,2009-09-06T15:00:00Z,28.4460,-96.3961,0.0,5.3,27.0,6.0,'11111222,11111222,11111222' 
TCOON,ioos:station:TCOON:057:1,2009-09-06T16:00:00Z,28.4460,-96.3961,0.0,4.2,41.0,5.2,'11111222,11111222,11111222' 
TCOON,ioos:station:TCOON:057:1,2009-09-06T17:00:00Z,28.4460,-96.3961,0.0,4.0,58.0,4.7,'11111222,11111222,11111222' 
TCOON,ioos:station:TCOON:057:1,2009-09-06T18:00:00Z,28.4460,-96.3961,0.0,4.7,105.0,5.4,'11111222,11111222,11111222' 
TCOON,ioos:station:TCOON:057:1,2009-09-06T19:00:00Z,28.4460,-96.3961,0.0,3.8,121.0,4.3,'11111222,11111222,11111222' 
TCOON,ioos:station:TCOON:057:1,2009-09-06T20:00:00Z,28.4460,-96.3961,0.0,4.7,116.0,5.4,'11111222,11111222,11111222' 
TCOON,ioos:station:TCOON:057:1,2009-09-06T21:00:00Z,28.4460,-96.3961,0.0,5.4,116.0,5.9,'11111222,11111222,11111222' 
TCOON,ioos:station:TCOON:057:1,2009-09-06T22:00:00Z,28.4460,-96.3961,0.0,5.1,117.0,6.0,'11111222,11111222,11111222' 
TCOON,ioos:station:TCOON:057:1,2009-09-06T23:00:00Z,28.4460,-96.3961,0.0,4.1,107.0,5.3,'11111222,11111222,11111222' 
TCOON,ioos:station:TCOON:057:1,2009-09-07T00:00:00Z,28.4460,-96.3961,0.0,4.9,113.0,6.1,'11111222,11111222,11111222' 
TCOON,ioos:station:TCOON:057:1,2009-09-07T01:00:00Z,28.4460,-96.3961,0.0,5.0,108.0,5.4,'11111222,11111222,11111222' 
TCOON,ioos:station:TCOON:057:1,2009-09-07T02:00:00Z,28.4460,-96.3961,0.0,5.0,127.0,5.6,'11111222,11111222,11111222' 
TCOON,ioos:station:TCOON:057:1,2009-09-07T03:00:00Z,28.4460,-96.3961,0.0,4.7,116.0,5.6,'11111222,11111222,11111222' 
TCOON,ioos:station:TCOON:057:1,2009-09-07T04:00:00Z,28.4460,-96.3961,0.0,4.7,127.0,5.5,'11111222,11111222,11111222' 
TCOON,ioos:station:TCOON:057:1,2009-09-07T05:00:00Z,28.4460,-96.3961,0.0,4.7,125.0,5.4,'11111222,11111222,11111222' 
TCOON,ioos:station:TCOON:057:1,2009-09-07T06:00:00Z,28.4460,-96.3961,0.0,4.1,124.0,4.9,'11111222,11111222,11111222' 
TCOON,ioos:station:TCOON:057:1,2009-09-07T07:00:00Z,28.4460,-96.3961,0.0,4.0,123.0,4.7,'11111222,11111222,11111222' 
TCOON,ioos:station:TCOON:057:1,2009-09-07T08:00:00Z,28.4460,-96.3961,0.0,3.3,129.0,3.8,'11111222,11111222,11111222' 
TCOON,ioos:station:TCOON:057:1,2009-09-07T09:00:00Z,28.4460,-96.3961,0.0,3.4,136.0,3.7,'11111222,11111222,11111222' 
TCOON,ioos:station:TCOON:057:1,2009-09-07T10:00:00Z,28.4460,-96.3961,0.0,4.7,169.0,5.2,'11111222,11111222,11111222' 
TCOON,ioos:station:TCOON:057:1,2009-09-07T11:00:00Z,28.4460,-96.3961,0.0,4.0,228.0,4.5,'11111222,11111222,11111222' 
TCOON,ioos:station:TCOON:057:1,2009-09-07T12:00:00Z,28.4460,-96.3961,0.0,1.7,257.0,2.1,'11111222,11111222,11111222' 
TCOON,ioos:station:TCOON:057:1,2009-09-07T13:00:00Z,28.4460,-96.3961,0.0,1.9,310.0,2.1,'11111222,11111222,11111222' 
TCOON,ioos:station:TCOON:057:1,2009-09-07T14:00:00Z,28.4460,-96.3961,0.0,1.0,210.0,1.5,'11111222,11111222,11111222' 
TCOON,ioos:station:TCOON:057:1,2009-09-07T15:00:00Z,28.4460,-96.3961,0.0,3.8,57.0,4.1,'11111222,11111222,11111222' 
TCOON,ioos:station:TCOON:057:1,2009-09-07T16:00:00Z,28.4460,-96.3961,0.0,4.4,55.0,5.1,'11111222,11111222,11111222' 
TCOON,ioos:station:TCOON:057:1,2009-09-07T17:00:00Z,28.4460,-96.3961,0.0,4.7,49.0,5.3,'11111222,11111222,11111222' 
TCOON,ioos:station:TCOON:057:1,2009-09-07T18:00:00Z,28.4460,-96.3961,0.0,4.8,103.0,5.6,'11111222,11111222,11111222' 
TCOON,ioos:station:TCOON:057:1,2009-09-07T19:00:00Z,28.4460,-96.3961,0.0,5.5,112.0,6.5,'11111222,11111222,11111222' 
TCOON,ioos:station:TCOON:057:1,2009-09-07T20:00:00Z,28.4460,-96.3961,0.0,5.6,112.0,6.1,'11111222,11111222,11111222' 
TCOON,ioos:station:TCOON:057:1,2009-09-07T21:00:00Z,28.4460,-96.3961,0.0,6.3,103.0,7.6,'11111222,11111222,11111222' 
TCOON,ioos:station:TCOON:057:1,2009-09-07T22:00:00Z,28.4460,-96.3961,0.0,6.7,110.0,7.7,'11111222,11111222,11111222' 
TCOON,ioos:station:TCOON:057:1,2009-09-07T23:00:00Z,28.4460,-96.3961,0.0,7.0,124.0,8.1,'11111222,11111222,11111222' 
TCOON,ioos:station:TCOON:057:1,2009-09-08T00:00:00Z,28.4460,-96.3961,0.0,6.8,123.0,7.7,'11111222,11111222,11111222' 
TCOON,ioos:station:TCOON:057:1,2009-09-08T01:00:00Z,28.4460,-96.3961,0.0,6.0,127.0,7.3,'11111222,11111222,11111222' 
TCOON,ioos:station:TCOON:057:1,2009-09-08T02:00:00Z,28.4460,-96.3961,0.0,6.6,131.0,7.3,'11111222,11111222,11111222' 
TCOON,ioos:station:TCOON:057:1,2009-09-08T03:00:00Z,28.4460,-96.3961,0.0,5.1,132.0,5.9,'11111222,11111222,11111222' 
TCOON,ioos:station:TCOON:057:1,2009-09-08T04:00:00Z,28.4460,-96.3961,0.0,5.4,127.0,6.4,'11111222,11111222,11111222' 
TCOON,ioos:station:TCOON:057:1,2009-09-08T05:00:00Z,28.4460,-96.3961,0.0,5.5,135.0,6.0,'11111222,11111222,11111222' 
TCOON,ioos:station:TCOON:057:1,2009-09-08T06:00:00Z,28.4460,-96.3961,0.0,4.3,137.0,5.4,'11111222,11111222,11111222' 
TCOON,ioos:station:TCOON:057:1,2009-09-08T07:00:00Z,28.4460,-96.3961,0.0,4.9,141.0,5.4,'11111222,11111222,11111222' 
TCOON,ioos:station:TCOON:057:1,2009-09-08T08:00:00Z,28.4460,-96.3961,0.0,4.2,132.0,4.6,'11111222,11111222,11111222' 
TCOON,ioos:station:TCOON:057:1,2009-09-08T09:00:00Z,28.4460,-96.3961,0.0,3.6,152.0,4.1,'11111222,11111222,11111222' 
TCOON,ioos:station:TCOON:057:1,2009-09-08T10:00:00Z,28.4460,-96.3961,0.0,3.6,132.0,4.0,'11111222,11111222,11111222' 
TCOON,ioos:station:TCOON:057:1,2009-09-08T11:00:00Z,28.4460,-96.3961,0.0,4.6,162.0,5.3,'11111222,11111222,11111222' 
TCOON,ioos:station:TCOON:057:1,2009-09-08T12:00:00Z,28.4460,-96.3961,0.0,1.3,201.0,1.9,'11111222,11111222,11111222' 
TCOON,ioos:station:TCOON:057:1,2009-09-08T13:00:00Z,28.4460,-96.3961,0.0,3.8,133.0,4.3,'11111222,11111222,11111222' 
TCOON,ioos:station:TCOON:057:1,2009-09-08T14:00:00Z,28.4460,-96.3961,0.0,3.1,159.0,3.8,'11111222,11111222,11111222' 
TCOON,ioos:station:TCOON:057:1,2009-09-08T15:00:00Z,28.4460,-96.3961,0.0,5.1,241.0,5.8,'11111222,11111222,11111222' 
TCOON,ioos:station:TCOON:057:1,2009-09-08T16:00:00Z,28.4460,-96.3961,0.0,1.4,71.0,1.9,'11111222,11111222,11111222' 
TCOON,ioos:station:TCOON:057:1,2009-09-08T17:00:00Z,28.4460,-96.3961,0.0,2.4,281.0,2.8,'11111222,11111222,11111222' 
TCOON,ioos:station:TCOON:057:1,2009-09-08T18:00:00Z,28.4460,-96.3961,0.0,2.6,30.0,3.1,'11111222,11111222,11111222' 
TCOON,ioos:station:TCOON:057:1,2009-09-08T19:00:00Z,28.4460,-96.3961,0.0,3.1,70.0,,'1111122,1111122,1111122' 
TCOON,ioos:station:TCOON:057:1,2009-09-08T21:00:00Z,28.4460,-96.3961,0.0,4.1,100.0,,'1111122,1111122,1111122' 
TCOON,ioos:station:TCOON:057:1,2009-09-08T22:00:00Z,28.4460,-96.3961,0.0,6.2,100.0,,'1111122,1111122,1111122' 
TCOON,ioos:station:TCOON:057:1,2009-09-08T23:00:00Z,28.4460,-96.3961,0.0,6.2,130.0,,'1111122,1111122,1111122' 
TCOON,ioos:station:TCOON:057:1,2009-09-09T01:00:00Z,28.4460,-96.3961,0.0,5.7,120.0,,'1111122,1111122,1111122' 
TCOON,ioos:station:TCOON:057:1,2009-09-09T02:00:00Z,28.4460,-96.3961,0.0,5.7,140.0,,'1111122,1111122,1111122' 
TCOON,ioos:station:TCOON:057:1,2009-09-09T03:00:00Z,28.4460,-96.3961,0.0,5.7,150.0,,'1111122,1111122,1111122' 
TCOON,ioos:station:TCOON:057:1,2009-09-09T04:00:00Z,28.4460,-96.3961,0.0,6.2,140.0,,'1111122,1111122,1111122' 
TCOON,ioos:station:TCOON:057:1,2009-09-09T05:00:00Z,28.4460,-96.3961,0.0,5.7,160.0,,'1111122,1111122,1111122' 
TCOON,ioos:station:TCOON:057:1,2009-09-09T06:00:00Z,28.4460,-96.3961,0.0,5.7,160.0,,'1111122,1111122,1111122' 
TCOON,ioos:station:TCOON:057:1,2009-09-09T07:00:00Z,28.4460,-96.3961,0.0,5.7,170.0,,'1111122,1111122,1111122' 
TCOON,ioos:station:TCOON:057:1,2009-09-09T08:00:00Z,28.4460,-96.3961,0.0,4.6,180.0,,'1111122,1111122,1111122' 
TCOON,ioos:station:TCOON:057:1,2009-09-09T09:00:00Z,28.4460,-96.3961,0.0,4.6,220.0,,'1111122,1111122,1111122' 
TCOON,ioos:station:TCOON:057:1,2009-09-09T10:00:00Z,28.4460,-96.3961,0.0,6.2,110.0,,'1111122,1111122,1111122' 
TCOON,ioos:station:TCOON:057:1,2009-09-09T11:00:00Z,28.4460,-96.3961,0.0,7.7,190.0,,'1111122,1111122,1111122' 
TCOON,ioos:station:TCOON:057:1,2009-09-09T12:00:00Z,28.4460,-96.3961,0.0,7.7,150.0,,'1111122,1111122,1111122' 
TCOON,ioos:station:TCOON:057:1,2009-09-09T13:00:00Z,28.4460,-96.3961,0.0,5.7,140.0,,'1111122,1111122,1111122' 
TCOON,ioos:station:TCOON:057:1,2009-09-09T15:00:00Z,28.4460,-96.3961,0.0,1.0,290.0,,'1111122,1111122,1111122' 
TCOON,ioos:station:TCOON:057:1,2009-09-09T17:00:00Z,28.4460,-96.3961,0.0,3.6,90.0,,'1111122,1111122,1111122' 